[[{"header":{"parameterUnit":"m.s-1","parameterCategory":1,"la1":30.2991,"la2":30.254,"lo1":-89.0895,"lo2":-89.0444,"dy":0.0017,"dx":0.0017,"nx":28,"ny":28,"refTime":"2025-11-08T03:00:00:Z","depth":0,"parameterNumber":2,"parameterNumberName":"U-component_of_WINDS"},"data":[0,0,0,0,0,0,0,0,0,0,0,0,0,0,0,0,0,0,0,0,0,0,0,0,0,0,0,0,0,0,0,0,0,0,0,0,0,0,0,0,0,0,0,0,0,0,0,0,0,0,0,0,0,0,0,0,0,0,2.5411,2.5414,0,2.5656,2.5659,2.5661,2.5726,2.5724,2.5723,2.5722,2.5973,2.5981,2.5989,0,0,0,0,0,0,0,0,0,0,0,0,0,2.5003,2.501,2.5411,2.5414,2.5417,2.5655,2.5659,2.5662,2.5726,2.5724,2.5723,2.5721,2.5971,2.598,2.599,0,0,0,0,0,0,0,0,0,0,0,0,0,2.5207,2.5012,2.5411,2.5478,2.5486,2.5655,2.5659,2.5663,2.5727,2.5724,2.5722,2.572,2.5967,2.5979,2.5991,2.611,0,0,2.6028,2.6033,0,0,0,0,0,0,0,0,2.5195,2.5222,2.5465,2.5474,2.5483,2.5658,2.5607,2.5813,2.5727,2.5635,2.5722,2.5719,2.587,2.589,2.5941,2.6122,2.6133,2.6029,2.6037,2.6042,2.6045,0,0,0,0,0,0,0,2.5181,2.5212,2.5508,2.5468,2.548,2.5497,2.5523,2.5646,2.5762,2.5643,2.5648,2.5676,2.5875,2.5929,2.5947,2.6137,2.6029,2.604,2.6047,2.6052,2.6431,2.6433,0,0,0,0,0,0,2.5155,2.5199,2.55,2.5515,2.5331,2.5506,2.5536,2.5604,2.5761,2.5783,2.5678,2.5679,2.591,2.5933,2.5956,2.6108,2.6042,2.6053,2.606,2.6428,2.6431,2.6434,0,0,0,0,0,0,2.5146,2.5181,2.549,2.5359,2.54,2.5515,2.5592,2.561,2.5665,2.5788,2.5809,2.5712,2.5909,2.5939,2.6072,2.6117,2.6059,2.607,2.6425,2.6429,2.6433,2.641,0,0,0,0,0,0,2.5134,2.5177,2.5223,2.5359,2.5406,2.5601,2.5595,2.5617,2.5685,2.5688,2.5825,2.5846,2.5909,2.6054,2.6084,2.6133,2.6079,2.6421,2.6427,2.6432,2.6407,2.6413,2.6418,0,0,0,0,0,2.5119,2.5207,2.5225,2.5261,2.5466,2.5603,2.563,2.5701,2.5688,2.5736,2.5815,2.5841,2.6108,2.6067,2.6102,2.6155,2.6419,2.6425,2.6431,2.6405,2.6412,2.6418,0,0,0,0,0,0,2.5072,2.5226,2.5248,2.5382,2.5479,2.5614,2.5676,2.5706,2.5809,2.5808,2.5892,2.5923,2.605,2.6116,2.6068,2.628,2.6264,2.6277,2.6232,2.6239,2.6244,2.6226,2.6089,0,0,0,0,0,2.5078,2.5176,2.5305,2.5411,2.5459,2.5559,2.5621,2.5668,2.5772,2.5814,2.5903,2.6003,2.611,2.6179,2.6283,2.6418,2.6449,2.6472,2.6477,2.6481,2.6491,2.6569,2.6581,2.6455,2.6455,2.6455,0,0,2.509,2.5186,2.5242,2.5404,2.5485,2.5586,2.5593,2.5699,2.5775,2.583,2.5961,2.603,2.6148,2.6282,2.6346,2.6341,2.6533,2.6489,2.6491,2.65,2.6577,2.6589,2.6599,2.6459,2.6459,2.6458,0,0,2.5163,2.5245,2.5343,2.5424,2.5547,2.5613,2.5636,2.5768,2.5816,2.5948,2.5992,2.6085,2.6266,2.6349,2.6415,2.6523,2.6551,2.6555,2.6582,2.6657,2.6667,2.6676,2.6715,2.6728,2.6565,2.6565,2.6565,0,2.5162,2.5315,2.539,2.5494,2.5565,2.562,2.5721,2.5796,2.5946,2.5994,2.5987,2.6217,2.6301,2.6456,2.6483,2.6534,2.6565,2.6539,2.6659,2.6669,2.6679,2.6717,2.6732,2.6565,2.6565,2.6565,2.6565,0,2.5309,2.5415,2.548,2.5623,2.5702,2.5803,2.5895,2.5965,2.6006,2.6073,2.6209,2.6311,2.6438,2.6479,2.6519,2.6641,2.6635,2.6642,2.6627,2.6689,2.6727,2.6742,2.6564,2.6564,2.6564,2.6564,0,0,2.5358,2.5544,2.5566,2.5633,2.5773,2.5857,2.5962,2.6087,2.6146,2.6249,2.634,2.6494,2.6502,2.6577,2.6628,2.6693,2.6774,2.6694,2.6698,2.6705,2.6916,2.6909,2.6924,2.6794,2.6797,2.6799,2.6906,0,2.5449,2.5639,2.571,2.5865,2.5965,2.602,2.6112,2.6209,2.6275,2.637,2.6445,2.6552,2.6555,2.6601,2.6668,2.6749,2.6817,2.6743,2.688,2.6884,2.6848,2.6944,2.6937,2.7032,2.6921,2.6924,2.6925,0,2.558,2.5685,2.585,2.5979,2.6024,2.6105,2.6226,2.6316,2.6428,2.6472,2.6556,2.6603,2.6718,2.6697,2.6856,2.6804,2.6865,2.6914,2.6919,2.6934,2.6908,2.6962,2.7064,2.7078,2.6949,2.6947,2.6946,0,2.56,2.5782,2.5905,2.596,2.6114,2.6171,2.6238,2.6347,2.6418,2.6524,2.6572,2.669,2.6755,2.6846,2.6924,2.6901,2.7077,2.7062,2.7118,2.7116,2.7151,2.7148,2.7265,2.7191,2.7191,2.719,2.719,0,2.5694,2.5793,2.5916,2.5991,2.6105,2.6187,2.6297,2.6368,2.6465,2.6557,2.6612,2.6697,2.6795,2.6893,2.6956,2.7079,2.7108,2.7148,2.7163,2.7142,2.7137,2.7183,2.7178,2.7194,2.7193,2.7193,2.7192,0,2.5735,2.5821,2.5959,2.6094,2.613,2.6208,2.6324,2.64,2.647,2.6585,2.6617,2.6727,2.6846,2.6933,2.7086,2.7129,2.726,2.7276,2.7222,2.723,2.7281,2.7275,2.7431,2.7456,2.7365,2.7365,2.7366,0,2.5789,2.5866,2.601,2.6075,2.6142,2.6246,2.6319,2.6403,2.6477,2.6612,2.6672,2.6794,2.6896,2.7084,2.7178,2.7296,2.7315,2.7362,2.7333,2.7311,2.7317,2.7311,2.7319,2.7365,2.7366,2.7367,2.7367,0,2.5876,2.5915,2.6017,2.6136,2.6221,2.6319,2.6417,2.6467,2.657,2.665,2.6772,2.6851,2.7009,2.713,2.7258,2.7329,2.7366,2.7376,2.7395,2.7374,2.734,2.736,2.7233,2.7371,2.7371,2.7371,2.737,2.737,2.5926,2.5997,2.611,2.6223,2.6306,2.6397,2.6476,2.6556,2.6659,2.6792,2.6837,2.6963,2.7076,2.7251,2.7324,2.7425,2.7424,2.7451,2.7459,2.7464,2.7463,2.7324,2.7448,2.7448,2.7448,2.7448,2.7448,0,2.6015,2.6091,2.6194,2.633,2.6419,2.6446,2.6557,2.6631,2.674,2.6842,2.6942,2.7083,2.7201,2.7306,2.7429,2.749,2.751,2.752,2.7516,2.7532,2.7456,2.7427,2.7502,2.7502,2.7501,2.7501,2.7501,2.7501,2.6073,2.6196,2.6249,2.6415,2.6491,2.6614,2.6675,2.676,2.6842,2.6996,2.7095,2.7162,2.7266,2.7398,2.7509,2.7537,2.758,2.7585,2.7617,2.7544,2.7537,2.7531,2.7504,2.7593,2.7594,2.7684,2.7685,2.7686]},{"header":{"parameterUnit":"m.s-1","parameterCategory":1,"la1":30.2991,"la2":30.254,"lo1":-89.0895,"lo2":-89.0444,"dy":0.0017,"dx":0.0017,"nx":28,"ny":28,"refTime":"2025-11-08T03:00:00:Z","depth":0,"parameterNumber":3,"parameterNumberName":"V-component_of_WINDS"},"data":[0,0,0,0,0,0,0,0,0,0,0,0,0,0,0,0,0,0,0,0,0,0,0,0,0,0,0,0,0,0,0,0,0,0,0,0,0,0,0,0,0,0,0,0,0,0,0,0,0,0,0,0,0,0,0,0,0,0,0.3736,0.3735,0,0.3691,0.369,0.369,0.3648,0.3648,0.3647,0.3647,0.3604,0.3603,0.3602,0,0,0,0,0,0,0,0,0,0,0,0,0,0.3787,0.3786,0.3736,0.3735,0.3735,0.3691,0.369,0.369,0.3648,0.3648,0.3647,0.3647,0.3604,0.3603,0.3602,0,0,0,0,0,0,0,0,0,0,0,0,0,0.3756,0.3786,0.3736,0.3709,0.3706,0.3691,0.369,0.3689,0.3649,0.3648,0.3647,0.3646,0.3604,0.3603,0.3602,0.3611,0,0,0.3599,0.3599,0,0,0,0,0,0,0,0,0.3758,0.3754,0.3713,0.3711,0.3707,0.3674,0.3692,0.3663,0.3649,0.367,0.3647,0.3646,0.3628,0.3625,0.3618,0.3609,0.3607,0.3599,0.3598,0.3598,0.3598,0,0,0,0,0,0,0,0.376,0.3756,0.3718,0.3713,0.3709,0.3699,0.3694,0.3687,0.3654,0.3668,0.3665,0.366,0.3626,0.3619,0.3617,0.3607,0.3599,0.3598,0.3597,0.3597,0.3602,0.3602,0,0,0,0,0,0,0.3766,0.3758,0.3719,0.3717,0.3731,0.3699,0.3693,0.3686,0.3654,0.3648,0.3661,0.3659,0.3621,0.3618,0.3615,0.3623,0.3598,0.3597,0.3596,0.3601,0.3602,0.3603,0,0,0,0,0,0,0.3767,0.3763,0.3721,0.3736,0.373,0.3699,0.3691,0.3685,0.3678,0.3648,0.3643,0.366,0.3621,0.3617,0.3612,0.3621,0.3596,0.3595,0.36,0.3601,0.3602,0.364,0,0,0,0,0,0,0.3769,0.3764,0.3767,0.3737,0.3729,0.3719,0.3692,0.3685,0.3676,0.3673,0.3646,0.3641,0.362,0.3614,0.3611,0.3619,0.3595,0.3599,0.3601,0.3602,0.3638,0.3642,0.3646,0,0,0,0,0,0.3771,0.378,0.3767,0.3763,0.3733,0.3719,0.3715,0.369,0.3677,0.368,0.3661,0.3642,0.362,0.3614,0.361,0.3619,0.3598,0.36,0.3602,0.3636,0.3642,0.3646,0,0,0,0,0,0,0.3813,0.3776,0.3761,0.376,0.3743,0.3712,0.3715,0.3697,0.3684,0.3681,0.3651,0.3645,0.3644,0.363,0.3624,0.3625,0.3607,0.3608,0.3634,0.3639,0.3643,0.3647,0.3594,0,0,0,0,0,0.3822,0.3814,0.3782,0.3784,0.3776,0.3747,0.3741,0.3722,0.3704,0.3697,0.3677,0.366,0.3649,0.3643,0.3632,0.3635,0.3629,0.3639,0.3643,0.3647,0.3648,0.3649,0.3653,0.3608,0.3608,0.3608,0,0,0.3842,0.382,0.3817,0.3792,0.3777,0.3769,0.3742,0.3735,0.3729,0.3696,0.369,0.3675,0.3654,0.3653,0.3652,0.3642,0.3659,0.3649,0.3652,0.3652,0.3651,0.3655,0.3659,0.3609,0.3609,0.3609,0,0,0.3873,0.3855,0.3855,0.384,0.3816,0.3796,0.3796,0.3768,0.3756,0.3749,0.3724,0.3716,0.3699,0.3685,0.3676,0.3699,0.3681,0.3696,0.3718,0.3719,0.3723,0.3726,0.3734,0.3738,0.3698,0.3698,0.3698,0,0.39,0.3887,0.3858,0.3852,0.3842,0.381,0.381,0.3796,0.3771,0.3765,0.3754,0.373,0.3714,0.3709,0.3715,0.3708,0.3707,0.37,0.3724,0.3727,0.3729,0.3737,0.3741,0.37,0.37,0.3699,0.3699,0,0.3921,0.3913,0.3916,0.389,0.388,0.3878,0.3848,0.3842,0.3824,0.3805,0.3799,0.3778,0.3761,0.3758,0.3742,0.3751,0.3745,0.373,0.3711,0.3736,0.3743,0.3746,0.3703,0.3702,0.3701,0.3701,0,0,0.398,0.3937,0.3939,0.3926,0.3897,0.389,0.3885,0.3868,0.3863,0.3845,0.3841,0.3826,0.3811,0.38,0.3781,0.3781,0.3801,0.3765,0.3764,0.3773,0.381,0.3823,0.3827,0.3788,0.3789,0.3789,0.3812,0,0.4007,0.3996,0.3969,0.3967,0.3958,0.3927,0.3922,0.3904,0.3886,0.3877,0.3857,0.3847,0.3827,0.382,0.3819,0.3799,0.3809,0.3797,0.3785,0.3785,0.3792,0.3831,0.3844,0.3867,0.3815,0.3815,0.3815,0,0.4037,0.4021,0.4017,0.3987,0.3982,0.3979,0.396,0.3951,0.393,0.3916,0.3904,0.3882,0.3875,0.3857,0.3848,0.3841,0.3834,0.3823,0.3823,0.3822,0.3803,0.3831,0.3874,0.3878,0.3819,0.3819,0.3819,0,0.4081,0.4058,0.4052,0.4043,0.4007,0.4005,0.3991,0.3968,0.3959,0.3942,0.3936,0.392,0.3911,0.3899,0.3873,0.3862,0.3867,0.3847,0.3857,0.3857,0.386,0.3861,0.3903,0.3854,0.3854,0.3854,0.3854,0,0.4114,0.4114,0.4071,0.4068,0.4066,0.4035,0.4034,0.4016,0.3996,0.3989,0.396,0.3955,0.3921,0.3911,0.3891,0.3887,0.3883,0.3873,0.3867,0.3876,0.3877,0.3872,0.387,0.3855,0.3855,0.3855,0.3855,0,0.4163,0.4135,0.4127,0.4093,0.4084,0.4085,0.4056,0.4052,0.4031,0.4023,0.4019,0.3987,0.3974,0.3947,0.3927,0.3914,0.3914,0.3904,0.3921,0.3918,0.393,0.393,0.3971,0.3975,0.3924,0.3924,0.3925,0,0.4187,0.4185,0.4151,0.4143,0.4129,0.4118,0.4108,0.4077,0.4068,0.4042,0.4041,0.4025,0.4011,0.3992,0.3968,0.3952,0.3942,0.3958,0.394,0.3948,0.3943,0.3944,0.3944,0.3962,0.3963,0.3964,0.3964,0,0.4232,0.4217,0.4204,0.4185,0.4173,0.4157,0.4139,0.4135,0.4099,0.409,0.4076,0.4065,0.4044,0.4029,0.4009,0.3994,0.3974,0.397,0.3971,0.398,0.399,0.3986,0.3933,0.3969,0.3969,0.3968,0.3968,0.3968,0.4269,0.4266,0.4241,0.4226,0.4209,0.4193,0.4187,0.4165,0.4152,0.4132,0.4114,0.4101,0.4078,0.4049,0.4036,0.4026,0.4015,0.4018,0.4018,0.402,0.4023,0.3991,0.4022,0.4022,0.4021,0.4021,0.4021,0,0.4313,0.4295,0.4282,0.4257,0.4245,0.4225,0.4204,0.4196,0.4184,0.4164,0.415,0.4134,0.4119,0.4092,0.4075,0.4072,0.4062,0.4069,0.4069,0.4066,0.4033,0.4034,0.4077,0.4077,0.4077,0.4077,0.4077,0.4077,0.4335,0.4328,0.4311,0.4295,0.4277,0.4263,0.4253,0.4238,0.4222,0.4204,0.4191,0.4173,0.415,0.4131,0.4116,0.4108,0.4104,0.4114,0.4104,0.4074,0.4069,0.4064,0.4064,0.4113,0.4113,0.4137,0.4138,0.4138]}]]